Date_and_time,latitude,longitude,wind_speed,RelWindDirFrom,WindDirFrom,air_pressure,air_temperature,relative_humidity,Temp,platform_speed_wrt_ground,air_pressure_at_mean_sea_level,platform_orientation
2019-05-08 23:50,50.630455,-96.9807666666667,12.4,15.6,7,996.08,3.2,89,6.62,0.0,1023.89,360.0
2019-05-09 00:00,50.6304533333333,-96.980785,12.5,14.8,5,996.10,3.0,90,6.57,0.0,1023.90,270.0
2019-05-09 00:10,50.6304633333333,-96.9807783333333,12.4,14.3,6,996.05,3.2,89,6.44,0.0,1023.82,270.0
2019-05-09 00:20,50.63046,-96.98077,12.8,16.7,6,996.00,3.7,85,6.43,0.0,1023.74,270.0
2019-05-09 00:30,50.6304166666667,-96.9807883333333,12.5,15.7,2,995.99,3.9,82,6.47,0.0,1023.73,270.0
2019-05-09 00:40,50.6304283333333,-96.98078,12.2,15.0,1,995.97,4.0,81,6.48,0.0,1023.71,270.0
2019-05-09 00:50,50.630445,-96.9807733333333,13.3,18.0,1,996.00,4.2,79,6.44,0.0,1023.72,270.0
2019-05-09 01:00,50.6304416666667,-96.980765,13.6,16.8,2,996.00,4.4,77,6.38,0.0,1023.72,38.0
2019-05-09 01:10,50.6304416666667,-96.9807683333333,13.3,17.4,360,996.07,4.2,78,6.31,0.0,1023.81,38.0
2019-05-09 01:20,50.63045,-96.9807616666667,13.5,18.2,356,996.13,4.3,77,6.20,0.0,1023.87,38.0
2019-05-09 01:30,50.6304383333333,-96.9807733333333,12.7,16.9,356,996.25,4.3,76,6.14,0.0,1024.00,38.0
2019-05-09 01:40,50.630435,-96.9807716666667,12.9,16.2,356,996.33,4.0,76,6.12,0.0,1024.06,38.0
2019-05-09 01:50,50.6304366666667,-96.9807666666667,12.4,16.5,356,996.33,3.9,75,6.13,0.0,1024.08,38.0
2019-05-09 02:00,50.6304333333333,-96.9807666666667,11.6,15.3,353,996.44,3.8,74,6.29,0.0,1024.18,360.0
2019-05-09 02:10,50.63043,-96.9807783333333,9.7,14.1,345,996.54,3.9,71,6.44,0.0,1024.25,360.0
2019-05-09 02:20,50.63041,-96.98079,10.1,14.1,341,996.63,4.6,62,6.52,0.0,1024.31,360.0
2019-05-09 02:30,50.6304216666667,-96.9807816666667,10.3,15.5,345,996.72,5.0,58,6.55,0.0,1024.38,360.0
2019-05-09 02:40,50.630415,-96.9807816666667,11.3,18.5,344,996.74,4.9,56,6.55,0.0,1024.39,360.0
2019-05-09 02:50,50.6304216666667,-96.9807816666667,10.1,14.0,346,996.87,4.7,57,6.56,0.0,1024.52,360.0
2019-05-09 03:00,50.6304483333333,-96.980785,8.3,11.4,344,996.95,4.6,58,6.51,0.0,1024.62,142.0
2019-05-09 03:10,50.63043,-96.980795,9.3,15.4,343,997.00,4.6,58,6.54,0.0,1024.67,142.0
2019-05-09 03:20,50.6304433333333,-96.98077,11.0,15.9,343,996.97,4.5,57,6.55,0.0,1024.64,142.0
2019-05-09 03:30,50.6304366666667,-96.98078,10.4,17.3,342,997.07,4.5,56,6.56,0.0,1024.75,142.0
2019-05-09 03:40,50.630435,-96.98078,10.5,14.8,340,997.01,4.4,55,6.55,0.0,1024.71,142.0
2019-05-09 03:50,50.6304366666667,-96.9807783333333,10.4,15.8,345,997.01,4.2,54,6.53,0.0,1024.72,142.0
2019-05-09 04:00,50.63045,-96.98078,10.3,14.9,344,997.01,4.0,56,6.52,0.0,1024.72,317.2
2019-05-09 04:10,50.6304383333333,-96.9807716666667,11.1,17.7,343,997.02,3.9,57,6.49,0.0,1024.70,317.2
2019-05-09 04:20,50.6304433333333,-96.9807683333333,11.2,17.7,342,997.03,3.9,57,6.44,0.0,1024.70,317.2
2019-05-09 04:30,50.6304416666667,-96.9807683333333,11.2,16.4,341,997.04,3.7,59,6.42,0.0,1024.72,317.2
2019-05-09 04:40,50.6304433333333,-96.98077,10.4,15.3,343,997.02,3.6,60,6.42,0.0,1024.72,317.2
2019-05-09 04:50,50.6304416666667,-96.98077,10.8,16.5,345,997.06,3.5,63,6.40,0.0,1024.77,317.2
2019-05-09 05:00,50.63044,-96.98077,11.1,17.8,345,997.07,3.4,64,6.36,0.0,1024.79,360.0
2019-05-09 05:10,50.6304366666667,-96.9807683333333,11.3,16.7,342,997.03,3.3,66,6.37,0.0,1024.75,360.0
2019-05-09 05:20,50.63043,-96.9807683333333,10.8,17.1,343,997.05,3.3,68,6.37,0.0,1024.78,360.0
2019-05-09 05:30,50.63043,-96.9807683333333,11.3,16.3,342,997.00,3.3,68,6.33,0.0,1024.72,360.0
2019-05-09 05:40,50.6304233333333,-96.9807716666667,11.7,16.5,343,996.88,3.3,70,6.27,0.0,1024.61,360.0
2019-05-09 05:50,50.6304216666667,-96.9807683333333,11.8,17.4,344,996.88,3.2,71,6.26,0.0,1024.63,360.0
2019-05-09 06:00,50.6304233333333,-96.9807683333333,11.8,16.0,345,996.90,3.1,72,6.21,0.0,1024.65,142.3
2019-05-09 06:10,50.630425,-96.9807716666667,10.8,15.0,345,996.96,3.0,73,6.15,0.0,1024.73,142.3
2019-05-09 06:20,50.6304283333333,-96.9807733333333,11.7,17.5,345,996.86,2.9,74,6.12,0.0,1024.64,142.3
2019-05-09 06:30,50.63043,-96.9807733333333,11.0,15.6,346,996.88,2.8,76,6.08,0.0,1024.67,142.3
2019-05-09 06:40,50.63043,-96.980775,11.1,16.8,346,996.82,2.8,77,6.02,0.0,1024.62,142.3
2019-05-09 06:50,50.6304583333333,-96.9807933333333,11.2,14.5,349,996.84,2.8,79,6.01,0.0,1024.64,142.3
2019-05-09 07:00,50.6304516666667,-96.98077,11.4,14.6,349,996.83,2.7,81,6.00,0.0,1024.63,90.0
2019-05-09 07:10,50.6304383333333,-96.9807633333333,11.0,15.0,347,996.86,2.8,81,5.99,0.0,1024.67,90.0
2019-05-09 07:20,50.6304416666667,-96.9807666666667,11.2,16.3,350,996.88,2.8,81,5.97,0.0,1024.68,90.0
2019-05-09 07:30,50.6304433333333,-96.9807733333333,11.3,14.7,352,996.88,2.8,82,5.96,0.0,1024.69,90.0
2019-05-09 07:40,50.63044,-96.980775,11.0,17.5,350,996.87,2.7,82,6.02,0.0,1024.69,90.0
2019-05-09 07:50,50.6304416666667,-96.9807733333333,10.5,13.9,345,996.89,2.6,81,6.07,0.0,1024.71,90.0
2019-05-09 08:00,50.6304366666667,-96.9807683333333,10.1,13.4,340,996.90,2.5,80,6.08,0.0,1024.73,360.0
2019-05-09 08:10,50.630435,-96.98077,9.3,12.0,340,996.87,2.2,80,6.06,0.0,1024.73,360.0
2019-05-09 08:20,50.6304383333333,-96.98076,9.2,13.5,341,996.88,1.9,81,6.05,0.0,1024.75,360.0
2019-05-09 08:30,50.6304333333333,-96.9807716666667,9.5,12.8,338,996.87,1.8,82,6.02,0.0,1024.76,360.0
2019-05-09 08:40,50.630435,-96.9807716666667,8.4,12.2,335,996.93,1.6,82,5.98,0.0,1024.82,360.0
2019-05-09 08:50,50.630435,-96.9807716666667,8.1,11.1,329,997.01,1.2,83,5.97,0.0,1024.93,360.0
2019-05-09 09:00,50.6304383333333,-96.98077,8.5,12.4,333,997.02,1.0,83,5.99,0.0,1024.95,18.9
2019-05-09 09:10,50.63042,-96.9807733333333,8.3,12.4,338,997.07,1.0,85,5.99,0.0,1025.00,18.9
2019-05-09 09:20,50.6304266666667,-96.9807683333333,8.6,11.5,339,997.00,0.9,86,6.00,0.0,1024.93,18.9
2019-05-09 09:30,50.630435,-96.98077,9.3,13.3,338,996.99,0.8,87,6.00,0.0,1024.93,18.9
2019-05-09 09:40,50.6304383333333,-96.9807716666667,9.2,12.8,339,996.94,0.7,88,5.97,0.0,1024.89,18.9
2019-05-09 09:50,50.63044,-96.9807566666667,8.7,11.1,341,996.94,0.7,89,5.94,0.0,1024.90,18.9
2019-05-09 10:00,50.63044,-96.980765,9.2,12.9,341,996.94,0.8,90,5.90,0.0,1024.91,360.0
2019-05-09 10:10,50.6304416666667,-96.9807666666667,8.8,12.7,340,997.00,0.8,91,5.88,0.0,1024.98,360.0
2019-05-09 10:20,50.6304416666667,-96.980765,9.0,11.5,338,997.04,0.7,91,5.87,0.0,1025.04,360.0
2019-05-09 10:30,50.6304433333333,-96.980765,8.9,11.6,337,997.03,0.6,92,5.88,0.0,1025.03,360.0
2019-05-09 10:40,50.6304416666667,-96.980765,8.2,11.5,336,997.08,0.5,92,5.87,0.0,1025.12,360.0
2019-05-09 10:50,50.6304416666667,-96.9807666666667,7.8,11.3,332,997.09,0.4,93,5.82,0.0,1025.15,360.0
2019-05-09 11:00,50.630435,-96.9807683333333,7.5,9.7,330,997.13,0.3,93,5.80,0.0,1025.19,0.0
2019-05-09 11:10,50.6304383333333,-96.9807666666667,7.6,10.2,334,997.18,0.3,93,5.76,0.0,1025.24,0.0
2019-05-09 11:20,50.6304383333333,-96.9807633333333,7.7,11.3,337,997.19,0.5,93,5.71,0.0,1025.25,0.0
2019-05-09 11:30,50.63044,-96.980765,7.8,10.6,339,997.15,0.7,92,5.63,0.0,1025.20,0.0
2019-05-09 11:40,50.63044,-96.980765,8.3,10.8,340,997.14,0.9,91,5.60,0.0,1025.18,0.0
2019-05-09 11:50,50.63045,-96.9807716666667,7.8,11.1,343,997.21,1.1,91,5.60,0.0,1025.24,0.0
2019-05-09 12:00,50.6304466666667,-96.9807683333333,8.3,11.4,345,997.25,1.2,90,5.63,0.0,1025.27,38.0
2019-05-09 12:10,50.630445,-96.9807716666667,8.9,12.6,344,997.22,1.4,90,5.68,0.0,1025.24,38.0
2019-05-09 12:20,50.6304483333333,-96.9807716666667,8.9,11.9,346,997.21,1.5,90,5.68,0.0,1025.23,38.0
2019-05-09 12:30,50.6304483333333,-96.9807733333333,8.6,12.9,347,997.22,1.7,90,5.66,0.0,1025.23,38.0
2019-05-09 12:40,50.6304483333333,-96.9807716666667,8.3,11.4,349,997.29,1.8,90,5.65,0.0,1025.30,38.0
2019-05-09 12:50,50.6304483333333,-96.9807733333333,9.2,13.8,354,997.29,1.9,90,5.63,0.0,1025.31,38.0
2019-05-09 13:00,50.6304483333333,-96.9807716666667,10.3,16.4,352,997.23,2.1,89,5.59,0.0,1025.24,311.7
2019-05-09 13:10,50.6304483333333,-96.9807716666667,10.7,14.3,357,997.30,2.2,89,5.58,0.0,1025.29,311.7
2019-05-09 13:20,50.6304483333333,-96.9807716666667,10.9,15.0,359,997.23,2.2,88,5.57,0.0,1025.20,311.7
2019-05-09 13:30,50.6304483333333,-96.9807583333333,11.3,14.2,358,997.14,2.3,88,5.53,0.0,1025.10,311.7
2019-05-09 13:40,50.630445,-96.9807683333333,10.8,13.7,356,997.11,2.4,88,5.51,0.0,1025.06,311.7
2019-05-09 13:50,50.6304416666667,-96.980765,10.8,13.9,358,997.09,2.5,88,5.50,0.0,1025.02,311.7
2019-05-09 14:00,50.6304433333333,-96.9807666666667,11.3,15.1,357,996.98,2.5,88,5.48,0.0,1024.90,38.0
2019-05-09 14:10,50.6304116666667,-96.9807766666667,11.0,14.4,357,996.95,2.6,86,5.48,0.0,1024.86,38.0
2019-05-09 14:20,50.63043,-96.9807766666667,11.6,14.7,360,996.95,2.6,86,5.47,0.0,1024.85,38.0
2019-05-09 14:30,50.6304316666667,-96.9807366666667,12.2,15.3,1,996.94,2.6,85,5.53,0.0,1024.83,38.0
2019-05-09 14:40,50.6304433333333,-96.98079,11.6,15.4,3,997.00,2.7,85,5.56,0.0,1024.88,38.0
2019-05-09 14:50,50.6304416666667,-96.9807766666667,11.2,12.9,1,996.96,2.8,84,5.60,0.0,1024.83,38.0
2019-05-09 15:00,50.6304416666667,-96.980775,11.3,13.9,2,996.94,3.0,82,5.62,0.0,1024.80,192.6
2019-05-09 15:10,50.6304416666667,-96.9807716666667,11.3,14.2,2,996.89,3.2,78,5.64,0.0,1024.73,192.6
2019-05-09 15:20,50.63046,-96.98076,10.0,12.4,4,996.89,3.3,78,5.66,0.0,1024.72,192.6
2019-05-09 15:30,50.630455,-96.9807666666667,9.4,11.0,10,996.88,2.9,85,5.67,0.0,1024.73,192.6
2019-05-09 15:40,50.630455,-96.9807683333333,9.7,11.1,14,996.85,2.5,90,5.68,0.0,1024.72,192.6
2019-05-09 15:50,50.6304566666667,-96.9807716666667,9.4,10.6,14,996.77,2.4,90,5.70,0.0,1024.63,192.6
2019-05-09 16:00,50.6304733333333,-96.9808333333333,10.0,11.1,14,996.67,2.6,87,5.72,0.0,1024.51,304.4
2019-05-09 16:10,50.6304483333333,-96.9807883333333,9.6,10.6,15,996.65,2.8,85,5.75,0.0,1024.48,304.4
2019-05-09 16:20,50.6304483333333,-96.98078,8.9,9.8,16,996.62,2.8,84,5.77,0.0,1024.45,304.4
2019-05-09 16:30,50.6304466666667,-96.98078,8.6,10.0,17,996.55,2.9,82,5.80,0.0,1024.37,304.4
2019-05-09 16:40,50.630445,-96.9807766666667,8.0,9.3,25,996.48,2.9,83,5.84,0.0,1024.29,304.4
2019-05-09 16:50,50.6304433333333,-96.980775,8.2,9.1,22,996.37,2.9,83,5.89,0.0,1024.18,304.4
2019-05-09 17:00,50.6304416666667,-96.9807733333333,7.6,8.9,31,996.34,2.9,84,5.96,0.0,1024.12,270.0
2019-05-09 17:10,50.6304416666667,-96.9807716666667,6.1,7.5,29,996.34,2.4,90,6.07,0.0,1024.14,270.0
2019-05-09 17:20,50.6304416666667,-96.98077,6.4,7.0,16,996.23,2.4,90,6.13,0.0,1024.06,270.0
2019-05-09 17:30,50.6304416666667,-96.98077,7.3,8.5,16,996.12,2.6,89,6.04,0.0,1023.95,270.0
2019-05-09 17:40,50.63044,-96.9807683333333,9.0,10.0,12,995.98,3.4,76,5.72,0.0,1023.77,270.0
2019-05-09 17:50,50.63044,-96.98077,9.8,12.3,5,995.86,4.4,62,5.64,0.0,1023.59,270.0
2019-05-09 18:00,50.63044,-96.98077,11.7,15.8,6,995.76,5.6,49,5.85,0.0,1023.42,90.0
2019-05-09 18:10,50.6304233333333,-96.980765,11.8,14.8,7,995.72,6.0,46,5.76,0.0,1023.35,90.0
2019-05-09 18:20,50.6304466666667,-96.9807616666667,12.5,14.1,10,995.66,5.6,48,6.17,0.0,1023.31,90.0
2019-05-09 18:30,50.6304433333333,-96.9807683333333,12.0,13.9,9,995.60,5.4,49,6.30,0.0,1023.26,90.0
2019-05-09 18:40,50.6304416666667,-96.98077,11.5,12.3,9,995.51,5.8,46,6.32,0.0,1023.14,90.0
2019-05-09 18:50,50.63044,-96.9807683333333,11.0,11.7,16,995.42,5.7,47,6.25,0.0,1023.05,90.0
2019-05-09 19:00,50.6304416666667,-96.980755,10.5,11.2,11,995.31,5.6,47,6.11,0.0,1022.97,124.7
2019-05-09 19:10,50.6304433333333,-96.9807566666667,10.4,11.6,20,995.21,5.9,46,5.98,0.0,1022.85,124.7
2019-05-09 19:20,50.6304416666667,-96.9807533333333,10.3,11.4,24,995.11,5.5,50,5.91,0.0,1022.76,124.7
2019-05-09 19:30,50.6304416666667,-96.9807533333333,10.3,11.4,28,995.00,5.5,49,5.56,0.0,1022.61,124.7
2019-05-09 19:40,50.6304116666667,-96.9807516666667,10.1,10.6,28,994.91,5.6,48,5.47,0.0,1022.46,124.7
2019-05-09 19:50,50.6304383333333,-96.9807616666667,9.7,10.1,25,994.75,5.8,47,5.84,0.0,1022.23,124.7
2019-05-09 20:00,50.6304383333333,-96.9807633333333,8.8,9.8,32,994.63,5.6,49,6.20,0.0,1022.09,90.0
2019-05-09 20:10,50.63044,-96.9807616666667,9.3,11.0,32,994.54,4.9,54,6.41,0.0,1022.05,90.0
2019-05-09 20:20,50.6304416666667,-96.9807633333333,10.9,11.6,34,994.45,5.2,51,6.62,0.0,1021.96,90.0
2019-05-09 20:30,50.6304433333333,-96.9807616666667,10.0,11.0,30,994.44,5.5,48,6.85,0.0,1021.91,90.0
2019-05-09 20:40,50.630445,-96.980765,8.9,9.4,29,994.40,5.5,51,6.86,0.0,1021.88,90.0
2019-05-09 20:50,50.630445,-96.9807633333333,9.4,10.7,34,994.29,4.9,56,6.57,0.0,1021.80,90.0
2019-05-09 21:00,50.6304333333333,-96.980775,9.9,10.4,37,994.13,5.4,49,6.15,0.0,1021.60,194.5
2019-05-09 21:10,50.6304383333333,-96.9807733333333,9.4,10.2,36,994.09,6.2,44,5.85,0.0,1021.53,194.5
2019-05-09 21:20,50.630445,-96.9807716666667,7.1,9.3,30,994.11,5.5,53,5.76,0.0,1021.59,194.5
2019-05-09 21:30,50.6304433333333,-96.98077,5.0,5.9,27,994.04,4.8,60,5.74,0.0,1021.55,194.5
2019-05-09 21:40,50.630445,-96.98077,8.2,9.9,42,993.95,4.8,57,5.73,0.0,1021.44,194.5
2019-05-09 21:50,50.6304433333333,-96.9807683333333,10.3,10.9,39,993.80,5.1,55,5.74,0.0,1021.29,194.5
2019-05-09 22:00,50.6304416666667,-96.9807683333333,10.0,11.0,38,993.70,5.3,53,5.80,0.0,1021.21,270.0
2019-05-09 22:10,50.6304416666667,-96.9807666666667,8.4,9.5,39,993.70,5.2,55,5.88,0.0,1021.20,270.0
2019-05-09 22:20,50.6304416666667,-96.9807666666667,7.2,8.1,35,993.64,5.0,58,5.88,0.0,1021.13,270.0
2019-05-09 22:30,50.6304483333333,-96.9807916666667,7.5,8.5,34,993.58,4.6,60,5.81,0.0,1021.09,270.0
2019-05-09 22:40,50.6304333333333,-96.9807766666667,7.0,8.0,33,993.50,4.7,60,6.37,0.0,1021.03,270.0
2019-05-09 22:50,50.6304416666667,-96.9807733333333,8.2,9.1,33,993.50,5.1,54,6.57,0.0,1020.99,270.0
2019-05-09 23:00,50.6304383333333,-96.9807716666667,8.1,8.8,34,993.44,5.5,54,6.40,0.0,1020.87,270.0
2019-05-09 23:10,50.6304416666667,-96.9807733333333,6.6,7.6,26,993.34,4.8,61,6.17,0.0,1020.83,270.0
2019-05-09 23:20,50.6304583333333,-96.980785,6.5,7.6,27,993.27,4.8,60,5.88,0.0,1020.79,270.0
2019-05-09 23:30,50.6304433333333,-96.980775,6.6,7.5,30,993.20,4.8,61,5.92,0.0,1020.72,270.0
2019-05-09 23:40,50.630445,-96.9807833333333,4.9,6.7,21,993.16,4.7,63,5.69,0.0,1020.67,270.0
2019-05-09 23:50,50.63045,-96.980785,4.7,5.9,24,993.13,4.6,63,5.77,0.0,1020.64,270.0
